User: anonymous   Login
Location: Langangen
(59.1000°N, 9.8000°E)
Time: 08:17:20
(UTC+02:00)
Language:

Iridium 60 - Orbit

View from above orbital plane
View from above orbital plane
View from above satellite
View from above satellite

Ground track
Ground track

The orbit data is extracted from the following two-line orbital elements,

1 25276U 98019E   16206.61926006  .00000070  00000-0  17992-4 0  9993
2 25276  86.3936  63.9557 0002205  85.3294 274.8154 14.34220902959117
Epoch (UTC): 24 July 2016 14:51:44
Eccentricity: 0.0002205
inclination: 86.3936°
perigee height: 776 km
apogee height: 779 km
right ascension of ascending node: 63.9557°
argument of perigee: 85.3294°
revolutions per day: 14.34220902
mean anomaly at epoch: 274.8154°
orbit number at epoch: 95911

The dashed part of the orbit path shows where the satellite is in the earth's shadow,  

DLR